owner,sensor,date,latitude,longitude,vertical_datum,wind_speed,wind_to_direction,wind_speed_of_gust,qcFlag 
FIT,ioos:station:wmo:SIPF1:1,2014-11-01T00:00:00Z,27.8620,-80.4450,1.0,3.7,285.0,99.0,'11111222,11111222,11144222' 
FIT,ioos:station:wmo:SIPF1:1,2014-11-01T00:15:00Z,27.8620,-80.4450,1.0,4.1,290.0,99.0,'11111222,11111222,11144222' 
FIT,ioos:station:wmo:SIPF1:1,2014-11-01T00:30:00Z,27.8620,-80.4450,1.0,4.3,288.0,99.0,'11111222,11111222,11144222' 
FIT,ioos:station:wmo:SIPF1:1,2014-11-01T00:45:00Z,27.8620,-80.4450,1.0,4.0,293.0,99.0,'11111222,11111222,11144222' 
FIT,ioos:station:wmo:SIPF1:1,2014-11-01T01:00:00Z,27.8620,-80.4450,1.0,4.3,289.0,99.0,'11111222,11111222,11144222' 
FIT,ioos:station:wmo:SIPF1:1,2014-11-01T01:15:00Z,27.8620,-80.4450,1.0,3.8,283.0,99.0,'11111222,11111222,11144222' 
FIT,ioos:station:wmo:SIPF1:1,2014-11-01T01:30:00Z,27.8620,-80.4450,1.0,4.0,280.0,99.0,'11111222,11111222,11144222' 
FIT,ioos:station:wmo:SIPF1:1,2014-11-01T01:45:00Z,27.8620,-80.4450,1.0,4.9,282.0,99.0,'11111222,11111222,11144222' 
FIT,ioos:station:wmo:SIPF1:1,2014-11-01T02:00:00Z,27.8620,-80.4450,1.0,5.8,284.0,99.0,'11111222,11111222,11144222' 
FIT,ioos:station:wmo:SIPF1:1,2014-11-01T02:15:00Z,27.8620,-80.4450,1.0,5.8,280.0,99.0,'11111222,11111222,11144222' 
FIT,ioos:station:wmo:SIPF1:1,2014-11-01T02:30:00Z,27.8620,-80.4450,1.0,5.5,286.0,99.0,'11111222,11111222,11144222' 
FIT,ioos:station:wmo:SIPF1:1,2014-11-01T02:45:00Z,27.8620,-80.4450,1.0,5.2,287.0,99.0,'11111222,11111222,11144222' 
FIT,ioos:station:wmo:SIPF1:1,2014-11-01T03:00:00Z,27.8620,-80.4450,1.0,5.2,288.0,99.0,'11111222,11111222,11144222' 
FIT,ioos:station:wmo:SIPF1:1,2014-11-01T03:15:00Z,27.8620,-80.4450,1.0,5.4,289.0,99.0,'11111222,11111222,11144222' 
FIT,ioos:station:wmo:SIPF1:1,2014-11-01T03:30:00Z,27.8620,-80.4450,1.0,5.5,290.0,99.0,'11111222,11111222,11144222' 
FIT,ioos:station:wmo:SIPF1:1,2014-11-01T03:45:00Z,27.8620,-80.4450,1.0,5.0,300.0,99.0,'11111222,11111222,11144222' 
FIT,ioos:station:wmo:SIPF1:1,2014-11-01T04:00:00Z,27.8620,-80.4450,1.0,5.6,299.0,99.0,'11111222,11111222,11144222' 
FIT,ioos:station:wmo:SIPF1:1,2014-11-01T04:15:00Z,27.8620,-80.4450,1.0,5.3,296.0,99.0,'11111222,11111222,11144222' 
FIT,ioos:station:wmo:SIPF1:1,2014-11-01T04:30:00Z,27.8620,-80.4450,1.0,5.3,300.0,99.0,'11111222,11111222,11144222' 
FIT,ioos:station:wmo:SIPF1:1,2014-11-01T04:45:00Z,27.8620,-80.4450,1.0,4.9,304.0,99.0,'11111222,11111222,11144222' 
FIT,ioos:station:wmo:SIPF1:1,2014-11-01T05:00:00Z,27.8620,-80.4450,1.0,4.3,299.0,99.0,'11111222,11111222,11144222' 
FIT,ioos:station:wmo:SIPF1:1,2014-11-01T05:15:00Z,27.8620,-80.4450,1.0,4.8,292.0,99.0,'11111222,11111222,11144222' 
FIT,ioos:station:wmo:SIPF1:1,2014-11-01T05:30:00Z,27.8620,-80.4450,1.0,4.3,293.0,99.0,'11111222,11111222,11144222' 
FIT,ioos:station:wmo:SIPF1:1,2014-11-01T05:45:00Z,27.8620,-80.4450,1.0,4.5,289.0,99.0,'11111222,11111222,11144222' 
FIT,ioos:station:wmo:SIPF1:1,2014-11-01T06:00:00Z,27.8620,-80.4450,1.0,4.2,281.0,99.0,'11111222,11111222,11144222' 
FIT,ioos:station:wmo:SIPF1:1,2014-11-01T06:15:00Z,27.8620,-80.4450,1.0,4.5,282.0,99.0,'11111222,11111222,11144222' 
FIT,ioos:station:wmo:SIPF1:1,2014-11-01T06:30:00Z,27.8620,-80.4450,1.0,4.4,276.0,99.0,'11111222,11111222,11144222' 
FIT,ioos:station:wmo:SIPF1:1,2014-11-01T06:45:00Z,27.8620,-80.4450,1.0,4.7,282.0,99.0,'11111222,11111222,11144222' 
FIT,ioos:station:wmo:SIPF1:1,2014-11-01T07:00:00Z,27.8620,-80.4450,1.0,5.1,287.0,99.0,'11111222,11111222,11144222' 
FIT,ioos:station:wmo:SIPF1:1,2014-11-01T07:15:00Z,27.8620,-80.4450,1.0,5.1,297.0,99.0,'11111222,11111222,11144222' 
FIT,ioos:station:wmo:SIPF1:1,2014-11-01T07:30:00Z,27.8620,-80.4450,1.0,5.2,297.0,99.0,'11111222,11111222,11144222' 
FIT,ioos:station:wmo:SIPF1:1,2014-11-01T07:45:00Z,27.8620,-80.4450,1.0,4.4,297.0,99.0,'11111222,11111222,11144222' 
FIT,ioos:station:wmo:SIPF1:1,2014-11-01T08:00:00Z,27.8620,-80.4450,1.0,3.8,293.0,99.0,'11111222,11111222,11144222' 
FIT,ioos:station:wmo:SIPF1:1,2014-11-01T08:15:00Z,27.8620,-80.4450,1.0,3.7,291.0,99.0,'11111222,11111222,11144222' 
FIT,ioos:station:wmo:SIPF1:1,2014-11-01T08:30:00Z,27.8620,-80.4450,1.0,3.1,285.0,99.0,'11111222,11111222,11144222' 
FIT,ioos:station:wmo:SIPF1:1,2014-11-01T08:45:00Z,27.8620,-80.4450,1.0,3.7,282.0,99.0,'11111222,11111222,11144222' 
FIT,ioos:station:wmo:SIPF1:1,2014-11-01T09:00:00Z,27.8620,-80.4450,1.0,3.6,281.0,99.0,'11111222,11111222,11144222' 
FIT,ioos:station:wmo:SIPF1:1,2014-11-01T09:15:00Z,27.8620,-80.4450,1.0,3.7,275.0,99.0,'11111222,11111222,11144222' 
FIT,ioos:station:wmo:SIPF1:1,2014-11-01T09:30:00Z,27.8620,-80.4450,1.0,3.3,267.0,99.0,'11111222,11111222,11144222' 
FIT,ioos:station:wmo:SIPF1:1,2014-11-01T09:45:00Z,27.8620,-80.4450,1.0,3.2,270.0,99.0,'11111222,11111222,11144222' 
FIT,ioos:station:wmo:SIPF1:1,2014-11-01T10:00:00Z,27.8620,-80.4450,1.0,3.6,272.0,99.0,'11111222,11111222,11144222' 
FIT,ioos:station:wmo:SIPF1:1,2014-11-01T10:15:00Z,27.8620,-80.4450,1.0,3.7,268.0,99.0,'11111222,11111222,11144222' 
FIT,ioos:station:wmo:SIPF1:1,2014-11-01T10:30:00Z,27.8620,-80.4450,1.0,3.4,271.0,99.0,'11111222,11111222,11144222' 
FIT,ioos:station:wmo:SIPF1:1,2014-11-01T10:45:00Z,27.8620,-80.4450,1.0,3.7,266.0,99.0,'11111222,11111222,11144222' 
FIT,ioos:station:wmo:SIPF1:1,2014-11-01T11:00:00Z,27.8620,-80.4450,1.0,4.1,261.0,99.0,'11111222,11111222,11144222' 
FIT,ioos:station:wmo:SIPF1:1,2014-11-01T11:15:00Z,27.8620,-80.4450,1.0,4.2,272.0,99.0,'11111222,11111222,11144222' 
FIT,ioos:station:wmo:SIPF1:1,2014-11-01T11:30:00Z,27.8620,-80.4450,1.0,4.8,270.0,99.0,'11111222,11111222,11144222' 
FIT,ioos:station:wmo:SIPF1:1,2014-11-01T11:45:00Z,27.8620,-80.4450,1.0,4.8,285.0,99.0,'11111222,11111222,11144222' 
FIT,ioos:station:wmo:SIPF1:1,2014-11-01T12:00:00Z,27.8620,-80.4450,1.0,6.3,298.0,99.0,'11111222,11111222,11144222' 
FIT,ioos:station:wmo:SIPF1:1,2014-11-01T12:15:00Z,27.8620,-80.4450,1.0,7.8,313.0,99.0,'11111222,11111222,11144222' 
FIT,ioos:station:wmo:SIPF1:1,2014-11-01T12:30:00Z,27.8620,-80.4450,1.0,7.9,317.0,99.0,'11111222,11111222,11144222' 
FIT,ioos:station:wmo:SIPF1:1,2014-11-01T12:45:00Z,27.8620,-80.4450,1.0,8.7,315.0,99.0,'11111222,11111222,11144222' 
FIT,ioos:station:wmo:SIPF1:1,2014-11-01T13:00:00Z,27.8620,-80.4450,1.0,8.4,318.0,99.0,'11111222,11111222,11144222' 
FIT,ioos:station:wmo:SIPF1:1,2014-11-01T13:15:00Z,27.8620,-80.4450,1.0,8.1,314.0,99.0,'11111222,11111222,11144222' 
FIT,ioos:station:wmo:SIPF1:1,2014-11-01T13:30:00Z,27.8620,-80.4450,1.0,8.4,307.0,99.0,'11111222,11111222,11144222' 
FIT,ioos:station:wmo:SIPF1:1,2014-11-01T13:45:00Z,27.8620,-80.4450,1.0,8.2,313.0,99.0,'11111222,11111222,11144222' 
FIT,ioos:station:wmo:SIPF1:1,2014-11-01T14:00:00Z,27.8620,-80.4450,1.0,8.0,310.0,99.0,'11111222,11111222,11144222' 
FIT,ioos:station:wmo:SIPF1:1,2014-11-01T14:15:00Z,27.8620,-80.4450,1.0,8.0,302.0,99.0,'11111222,11111222,11144222' 
FIT,ioos:station:wmo:SIPF1:1,2014-11-01T14:30:00Z,27.8620,-80.4450,1.0,7.2,303.0,99.0,'11111222,11111222,11144222' 
FIT,ioos:station:wmo:SIPF1:1,2014-11-01T14:45:00Z,27.8620,-80.4450,1.0,8.7,305.0,99.0,'11111222,11111222,11144222' 
FIT,ioos:station:wmo:SIPF1:1,2014-11-01T15:00:00Z,27.8620,-80.4450,1.0,9.2,309.0,99.0,'11111222,11111222,11144222' 
FIT,ioos:station:wmo:SIPF1:1,2014-11-01T15:15:00Z,27.8620,-80.4450,1.0,8.6,297.0,99.0,'11111222,11111222,11144222' 
FIT,ioos:station:wmo:SIPF1:1,2014-11-01T15:30:00Z,27.8620,-80.4450,1.0,8.1,294.0,99.0,'11111222,11111222,11144222' 
FIT,ioos:station:wmo:SIPF1:1,2014-11-01T15:45:00Z,27.8620,-80.4450,1.0,9.2,302.0,99.0,'11111222,11111222,11144222' 
FIT,ioos:station:wmo:SIPF1:1,2014-11-01T16:00:00Z,27.8620,-80.4450,1.0,9.8,305.0,99.0,'11111222,11111222,11144222' 
FIT,ioos:station:wmo:SIPF1:1,2014-11-01T16:15:00Z,27.8620,-80.4450,1.0,10.1,291.0,99.0,'11111222,11111222,11144222' 
FIT,ioos:station:wmo:SIPF1:1,2014-11-01T16:30:00Z,27.8620,-80.4450,1.0,9.6,281.0,99.0,'11111222,11111222,11144222' 
FIT,ioos:station:wmo:SIPF1:1,2014-11-01T16:45:00Z,27.8620,-80.4450,1.0,9.8,285.0,99.0,'11111222,11111222,11144222' 
FIT,ioos:station:wmo:SIPF1:1,2014-11-01T17:00:00Z,27.8620,-80.4450,1.0,10.0,290.0,99.0,'11111222,11111222,11144222' 
FIT,ioos:station:wmo:SIPF1:1,2014-11-01T17:15:00Z,27.8620,-80.4450,1.0,10.2,302.0,99.0,'11111222,11111222,11144222' 
FIT,ioos:station:wmo:SIPF1:1,2014-11-01T17:30:00Z,27.8620,-80.4450,1.0,9.5,287.0,99.0,'11111222,11111222,11144222' 
FIT,ioos:station:wmo:SIPF1:1,2014-11-01T17:45:00Z,27.8620,-80.4450,1.0,8.9,298.0,99.0,'11111222,11111222,11144222' 
FIT,ioos:station:wmo:SIPF1:1,2014-11-01T18:00:00Z,27.8620,-80.4450,1.0,9.1,291.0,99.0,'11111222,11111222,11144222' 
FIT,ioos:station:wmo:SIPF1:1,2014-11-01T18:15:00Z,27.8620,-80.4450,1.0,8.3,291.0,99.0,'11111222,11111222,11144222' 
FIT,ioos:station:wmo:SIPF1:1,2014-11-01T18:30:00Z,27.8620,-80.4450,1.0,8.8,284.0,99.0,'11111222,11111222,11144222' 
FIT,ioos:station:wmo:SIPF1:1,2014-11-01T18:45:00Z,27.8620,-80.4450,1.0,9.0,282.0,99.0,'11111222,11111222,11144222' 
FIT,ioos:station:wmo:SIPF1:1,2014-11-01T19:00:00Z,27.8620,-80.4450,1.0,9.3,289.0,99.0,'11111222,11111222,11144222' 
FIT,ioos:station:wmo:SIPF1:1,2014-11-01T19:15:00Z,27.8620,-80.4450,1.0,10.4,292.0,99.0,'11111222,11111222,11144222' 
FIT,ioos:station:wmo:SIPF1:1,2014-11-01T19:30:00Z,27.8620,-80.4450,1.0,10.6,295.0,99.0,'11111222,11111222,11144222' 
FIT,ioos:station:wmo:SIPF1:1,2014-11-01T19:45:00Z,27.8620,-80.4450,1.0,9.4,304.0,99.0,'11111222,11111222,11144222' 
FIT,ioos:station:wmo:SIPF1:1,2014-11-01T20:00:00Z,27.8620,-80.4450,1.0,9.6,299.0,99.0,'11111222,11111222,11144222' 
FIT,ioos:station:wmo:SIPF1:1,2014-11-01T20:15:00Z,27.8620,-80.4450,1.0,9.0,284.0,99.0,'11111222,11111222,11144222' 
FIT,ioos:station:wmo:SIPF1:1,2014-11-01T20:30:00Z,27.8620,-80.4450,1.0,9.1,294.0,99.0,'11111222,11111222,11144222' 
FIT,ioos:station:wmo:SIPF1:1,2014-11-01T20:45:00Z,27.8620,-80.4450,1.0,9.6,307.0,99.0,'11111222,11111222,11144222' 
FIT,ioos:station:wmo:SIPF1:1,2014-11-01T21:00:00Z,27.8620,-80.4450,1.0,9.7,305.0,99.0,'11111222,11111222,11144222' 
FIT,ioos:station:wmo:SIPF1:1,2014-11-01T21:15:00Z,27.8620,-80.4450,1.0,8.1,309.0,99.0,'11111222,11111222,11144222' 
FIT,ioos:station:wmo:SIPF1:1,2014-11-01T21:30:00Z,27.8620,-80.4450,1.0,8.9,310.0,99.0,'11111222,11111222,11144222' 
FIT,ioos:station:wmo:SIPF1:1,2014-11-01T21:45:00Z,27.8620,-80.4450,1.0,7.8,302.0,99.0,'11111222,11111222,11144222' 
FIT,ioos:station:wmo:SIPF1:1,2014-11-01T22:00:00Z,27.8620,-80.4450,1.0,9.1,305.0,99.0,'11111222,11111222,11144222' 
FIT,ioos:station:wmo:SIPF1:1,2014-11-01T22:15:00Z,27.8620,-80.4450,1.0,8.0,304.0,99.0,'11111222,11111222,11144222' 
FIT,ioos:station:wmo:SIPF1:1,2014-11-01T22:30:00Z,27.8620,-80.4450,1.0,8.6,312.0,99.0,'11111222,11111222,11144222' 
FIT,ioos:station:wmo:SIPF1:1,2014-11-01T22:45:00Z,27.8620,-80.4450,1.0,6.9,310.0,99.0,'11111222,11111222,11144222' 
FIT,ioos:station:wmo:SIPF1:1,2014-11-01T23:00:00Z,27.8620,-80.4450,1.0,6.9,313.0,99.0,'11111222,11111222,11144222' 
FIT,ioos:station:wmo:SIPF1:1,2014-11-01T23:15:00Z,27.8620,-80.4450,1.0,7.0,316.0,99.0,'11111222,11111222,11144222' 
FIT,ioos:station:wmo:SIPF1:1,2014-11-01T23:30:00Z,27.8620,-80.4450,1.0,6.6,315.0,99.0,'11111222,11111222,11144222' 
FIT,ioos:station:wmo:SIPF1:1,2014-11-01T23:45:00Z,27.8620,-80.4450,1.0,6.1,313.0,99.0,'11111222,11111222,11144222' 
FIT,ioos:station:wmo:SIPF1:1,2014-11-02T00:00:00Z,27.8620,-80.4450,1.0,6.5,313.0,99.0,'11111222,11111222,11144222' 
FIT,ioos:station:wmo:SIPF1:1,2014-11-02T00:15:00Z,27.8620,-80.4450,1.0,6.9,313.0,99.0,'11111222,11111222,11144222' 
FIT,ioos:station:wmo:SIPF1:1,2014-11-02T00:30:00Z,27.8620,-80.4450,1.0,6.4,311.0,99.0,'11111222,11111222,11144222' 
FIT,ioos:station:wmo:SIPF1:1,2014-11-02T00:45:00Z,27.8620,-80.4450,1.0,6.3,312.0,99.0,'11111222,11111222,11144222' 
FIT,ioos:station:wmo:SIPF1:1,2014-11-02T01:00:00Z,27.8620,-80.4450,1.0,6.6,316.0,99.0,'11111222,11111222,11144222' 
FIT,ioos:station:wmo:SIPF1:1,2014-11-02T01:15:00Z,27.8620,-80.4450,1.0,6.7,315.0,99.0,'11111222,11111222,11144222' 
FIT,ioos:station:wmo:SIPF1:1,2014-11-02T01:30:00Z,27.8620,-80.4450,1.0,7.1,315.0,99.0,'11111222,11111222,11144222' 
FIT,ioos:station:wmo:SIPF1:1,2014-11-02T01:45:00Z,27.8620,-80.4450,1.0,8.1,327.0,99.0,'11111222,11111222,11144222' 
FIT,ioos:station:wmo:SIPF1:1,2014-11-02T02:00:00Z,27.8620,-80.4450,1.0,9.3,322.0,99.0,'11111222,11111222,11144222' 
FIT,ioos:station:wmo:SIPF1:1,2014-11-02T02:15:00Z,27.8620,-80.4450,1.0,7.3,320.0,99.0,'11111222,11111222,11144222' 
FIT,ioos:station:wmo:SIPF1:1,2014-11-02T02:30:00Z,27.8620,-80.4450,1.0,8.0,321.0,99.0,'11111222,11111222,11144222' 
FIT,ioos:station:wmo:SIPF1:1,2014-11-02T02:45:00Z,27.8620,-80.4450,1.0,7.4,317.0,99.0,'11111222,11111222,11144222' 
FIT,ioos:station:wmo:SIPF1:1,2014-11-02T03:00:00Z,27.8620,-80.4450,1.0,6.9,316.0,99.0,'11111222,11111222,11144222' 
FIT,ioos:station:wmo:SIPF1:1,2014-11-02T03:15:00Z,27.8620,-80.4450,1.0,6.9,313.0,99.0,'11111222,11111222,11144222' 
FIT,ioos:station:wmo:SIPF1:1,2014-11-02T03:30:00Z,27.8620,-80.4450,1.0,6.4,312.0,99.0,'11111222,11111222,11144222' 
FIT,ioos:station:wmo:SIPF1:1,2014-11-02T03:45:00Z,27.8620,-80.4450,1.0,6.0,312.0,99.0,'11111222,11111222,11144222' 
FIT,ioos:station:wmo:SIPF1:1,2014-11-02T04:00:00Z,27.8620,-80.4450,1.0,6.2,311.0,99.0,'11111222,11111222,11144222' 
FIT,ioos:station:wmo:SIPF1:1,2014-11-02T04:15:00Z,27.8620,-80.4450,1.0,5.8,316.0,99.0,'11111222,11111222,11144222' 
FIT,ioos:station:wmo:SIPF1:1,2014-11-02T04:30:00Z,27.8620,-80.4450,1.0,5.8,306.0,99.0,'11111222,11111222,11144222' 
FIT,ioos:station:wmo:SIPF1:1,2014-11-02T04:45:00Z,27.8620,-80.4450,1.0,5.8,306.0,99.0,'11111222,11111222,11144222' 
FIT,ioos:station:wmo:SIPF1:1,2014-11-02T05:00:00Z,27.8620,-80.4450,1.0,5.8,307.0,99.0,'11111222,11111222,11144222' 
FIT,ioos:station:wmo:SIPF1:1,2014-11-02T05:15:00Z,27.8620,-80.4450,1.0,6.4,313.0,99.0,'11111222,11111222,11144222' 
FIT,ioos:station:wmo:SIPF1:1,2014-11-02T05:30:00Z,27.8620,-80.4450,1.0,6.8,311.0,99.0,'11111222,11111222,11144222' 
FIT,ioos:station:wmo:SIPF1:1,2014-11-02T05:45:00Z,27.8620,-80.4450,1.0,7.0,311.0,99.0,'11111222,11111222,11144222' 
FIT,ioos:station:wmo:SIPF1:1,2014-11-02T06:00:00Z,27.8620,-80.4450,1.0,6.3,310.0,99.0,'11111222,11111222,11144222' 
FIT,ioos:station:wmo:SIPF1:1,2014-11-02T06:15:00Z,27.8620,-80.4450,1.0,6.3,312.0,99.0,'11111222,11111222,11144222' 
FIT,ioos:station:wmo:SIPF1:1,2014-11-02T06:30:00Z,27.8620,-80.4450,1.0,6.6,313.0,99.0,'11111222,11111222,11144222' 
FIT,ioos:station:wmo:SIPF1:1,2014-11-02T06:45:00Z,27.8620,-80.4450,1.0,6.4,312.0,99.0,'11111222,11111222,11144222' 
FIT,ioos:station:wmo:SIPF1:1,2014-11-02T07:00:00Z,27.8620,-80.4450,1.0,6.1,309.0,99.0,'11111222,11111222,11144222' 
FIT,ioos:station:wmo:SIPF1:1,2014-11-02T07:15:00Z,27.8620,-80.4450,1.0,6.3,312.0,99.0,'11111222,11111222,11144222' 
FIT,ioos:station:wmo:SIPF1:1,2014-11-02T07:30:00Z,27.8620,-80.4450,1.0,7.4,319.0,99.0,'11111222,11111222,11144222' 
FIT,ioos:station:wmo:SIPF1:1,2014-11-02T07:45:00Z,27.8620,-80.4450,1.0,8.1,318.0,99.0,'11111222,11111222,11144222' 
FIT,ioos:station:wmo:SIPF1:1,2014-11-02T08:00:00Z,27.8620,-80.4450,1.0,7.4,315.0,99.0,'11111222,11111222,11144222' 
FIT,ioos:station:wmo:SIPF1:1,2014-11-02T08:15:00Z,27.8620,-80.4450,1.0,7.0,310.0,99.0,'11111222,11111222,11144222' 
FIT,ioos:station:wmo:SIPF1:1,2014-11-02T08:30:00Z,27.8620,-80.4450,1.0,6.5,309.0,99.0,'11111222,11111222,11144222' 
FIT,ioos:station:wmo:SIPF1:1,2014-11-02T08:45:00Z,27.8620,-80.4450,1.0,6.2,309.0,99.0,'11111222,11111222,11144222' 
FIT,ioos:station:wmo:SIPF1:1,2014-11-02T09:00:00Z,27.8620,-80.4450,1.0,6.5,306.0,99.0,'11111222,11111222,11144222' 
FIT,ioos:station:wmo:SIPF1:1,2014-11-02T09:15:00Z,27.8620,-80.4450,1.0,7.0,303.0,99.0,'11111222,11111222,11144222' 
FIT,ioos:station:wmo:SIPF1:1,2014-11-02T09:30:00Z,27.8620,-80.4450,1.0,6.5,304.0,99.0,'11111222,11111222,11144222' 
FIT,ioos:station:wmo:SIPF1:1,2014-11-02T09:45:00Z,27.8620,-80.4450,1.0,6.8,302.0,99.0,'11111222,11111222,11144222' 
FIT,ioos:station:wmo:SIPF1:1,2014-11-02T10:00:00Z,27.8620,-80.4450,1.0,7.2,299.0,99.0,'11111222,11111222,11144222' 
FIT,ioos:station:wmo:SIPF1:1,2014-11-02T10:15:00Z,27.8620,-80.4450,1.0,6.6,305.0,99.0,'11111222,11111222,11144222' 
FIT,ioos:station:wmo:SIPF1:1,2014-11-02T10:30:00Z,27.8620,-80.4450,1.0,6.4,304.0,99.0,'11111222,11111222,11144222' 
FIT,ioos:station:wmo:SIPF1:1,2014-11-02T10:45:00Z,27.8620,-80.4450,1.0,6.5,302.0,99.0,'11111222,11111222,11144222' 
FIT,ioos:station:wmo:SIPF1:1,2014-11-02T11:00:00Z,27.8620,-80.4450,1.0,5.9,306.0,99.0,'11111222,11111222,11144222' 
FIT,ioos:station:wmo:SIPF1:1,2014-11-02T11:15:00Z,27.8620,-80.4450,1.0,5.9,318.0,99.0,'11111222,11111222,11144222' 
FIT,ioos:station:wmo:SIPF1:1,2014-11-02T11:30:00Z,27.8620,-80.4450,1.0,5.6,315.0,99.0,'11111222,11111222,11144222' 
FIT,ioos:station:wmo:SIPF1:1,2014-11-02T11:45:00Z,27.8620,-80.4450,1.0,5.7,313.0,99.0,'11111222,11111222,11144222' 
FIT,ioos:station:wmo:SIPF1:1,2014-11-02T12:00:00Z,27.8620,-80.4450,1.0,5.4,310.0,99.0,'11111222,11111222,11144222' 
FIT,ioos:station:wmo:SIPF1:1,2014-11-02T12:15:00Z,27.8620,-80.4450,1.0,6.5,313.0,99.0,'11111222,11111222,11144222' 
FIT,ioos:station:wmo:SIPF1:1,2014-11-02T12:30:00Z,27.8620,-80.4450,1.0,5.8,305.0,99.0,'11111222,11111222,11144222' 
FIT,ioos:station:wmo:SIPF1:1,2014-11-02T12:45:00Z,27.8620,-80.4450,1.0,4.8,305.0,99.0,'11111222,11111222,11144222' 
FIT,ioos:station:wmo:SIPF1:1,2014-11-02T13:00:00Z,27.8620,-80.4450,1.0,5.4,309.0,99.0,'11111222,11111222,11144222' 
FIT,ioos:station:wmo:SIPF1:1,2014-11-02T13:15:00Z,27.8620,-80.4450,1.0,5.4,306.0,99.0,'11111222,11111222,11144222' 
FIT,ioos:station:wmo:SIPF1:1,2014-11-02T13:30:00Z,27.8620,-80.4450,1.0,5.4,309.0,99.0,'11111222,11111222,11144222' 
FIT,ioos:station:wmo:SIPF1:1,2014-11-02T13:45:00Z,27.8620,-80.4450,1.0,5.3,313.0,99.0,'11111222,11111222,11144222' 
FIT,ioos:station:wmo:SIPF1:1,2014-11-02T14:00:00Z,27.8620,-80.4450,1.0,5.0,316.0,99.0,'11111222,11111222,11144222' 
FIT,ioos:station:wmo:SIPF1:1,2014-11-02T14:15:00Z,27.8620,-80.4450,1.0,5.4,312.0,99.0,'11111222,11111222,11144222' 
FIT,ioos:station:wmo:SIPF1:1,2014-11-02T14:30:00Z,27.8620,-80.4450,1.0,5.7,311.0,99.0,'11111222,11111222,11144222' 
FIT,ioos:station:wmo:SIPF1:1,2014-11-02T14:45:00Z,27.8620,-80.4450,1.0,5.8,322.0,99.0,'11111222,11111222,11144222' 
FIT,ioos:station:wmo:SIPF1:1,2014-11-02T15:00:00Z,27.8620,-80.4450,1.0,7.0,332.0,99.0,'11111222,11111222,11144222' 
FIT,ioos:station:wmo:SIPF1:1,2014-11-02T15:15:00Z,27.8620,-80.4450,1.0,7.8,338.0,99.0,'11111222,11111222,11144222' 
FIT,ioos:station:wmo:SIPF1:1,2014-11-02T15:30:00Z,27.8620,-80.4450,1.0,8.2,335.0,99.0,'11111222,11111222,11144222' 
FIT,ioos:station:wmo:SIPF1:1,2014-11-02T15:45:00Z,27.8620,-80.4450,1.0,8.4,337.0,99.0,'11111222,11111222,11144222' 
FIT,ioos:station:wmo:SIPF1:1,2014-11-02T16:00:00Z,27.8620,-80.4450,1.0,8.9,335.0,99.0,'11111222,11111222,11144222' 
FIT,ioos:station:wmo:SIPF1:1,2014-11-02T16:15:00Z,27.8620,-80.4450,1.0,9.2,341.0,99.0,'11111222,11111222,11144222' 
FIT,ioos:station:wmo:SIPF1:1,2014-11-02T16:30:00Z,27.8620,-80.4450,1.0,9.3,343.0,99.0,'11111222,11111222,11144222' 
FIT,ioos:station:wmo:SIPF1:1,2014-11-02T16:45:00Z,27.8620,-80.4450,1.0,9.0,340.0,99.0,'11111222,11111222,11144222' 
FIT,ioos:station:wmo:SIPF1:1,2014-11-02T17:00:00Z,27.8620,-80.4450,1.0,9.0,341.0,99.0,'11111222,11111222,11144222' 
FIT,ioos:station:wmo:SIPF1:1,2014-11-02T17:15:00Z,27.8620,-80.4450,1.0,8.9,346.0,99.0,'11111222,11111222,11144222' 
FIT,ioos:station:wmo:SIPF1:1,2014-11-02T17:30:00Z,27.8620,-80.4450,1.0,8.9,339.0,99.0,'11111222,11111222,11144222' 
FIT,ioos:station:wmo:SIPF1:1,2014-11-02T17:45:00Z,27.8620,-80.4450,1.0,9.0,339.0,99.0,'11111222,11111222,11144222' 
FIT,ioos:station:wmo:SIPF1:1,2014-11-02T18:00:00Z,27.8620,-80.4450,1.0,9.4,340.0,99.0,'11111222,11111222,11144222' 
FIT,ioos:station:wmo:SIPF1:1,2014-11-02T18:15:00Z,27.8620,-80.4450,1.0,9.5,344.0,99.0,'11111222,11111222,11144222' 
FIT,ioos:station:wmo:SIPF1:1,2014-11-02T18:30:00Z,27.8620,-80.4450,1.0,9.2,342.0,99.0,'11111222,11111222,11144222' 
FIT,ioos:station:wmo:SIPF1:1,2014-11-02T18:45:00Z,27.8620,-80.4450,1.0,9.3,338.0,99.0,'11111222,11111222,11144222' 
FIT,ioos:station:wmo:SIPF1:1,2014-11-02T19:00:00Z,27.8620,-80.4450,1.0,8.9,342.0,99.0,'11111222,11111222,11144222' 
FIT,ioos:station:wmo:SIPF1:1,2014-11-02T19:15:00Z,27.8620,-80.4450,1.0,9.1,345.0,99.0,'11111222,11111222,11144222' 
FIT,ioos:station:wmo:SIPF1:1,2014-11-02T19:30:00Z,27.8620,-80.4450,1.0,9.0,344.0,99.0,'11111222,11111222,11144222' 
FIT,ioos:station:wmo:SIPF1:1,2014-11-02T19:45:00Z,27.8620,-80.4450,1.0,9.0,347.0,99.0,'11111222,11111222,11144222' 
FIT,ioos:station:wmo:SIPF1:1,2014-11-02T20:00:00Z,27.8620,-80.4450,1.0,9.3,351.0,99.0,'11111222,11111222,11144222' 
FIT,ioos:station:wmo:SIPF1:1,2014-11-02T20:15:00Z,27.8620,-80.4450,1.0,9.0,350.0,99.0,'11111222,11111222,11144222' 
FIT,ioos:station:wmo:SIPF1:1,2014-11-02T20:30:00Z,27.8620,-80.4450,1.0,8.9,353.0,99.0,'11111222,11111222,11144222' 
FIT,ioos:station:wmo:SIPF1:1,2014-11-02T20:45:00Z,27.8620,-80.4450,1.0,8.4,360.0,99.0,'11111222,11144222,11144222' 
FIT,ioos:station:wmo:SIPF1:1,2014-11-02T21:00:00Z,27.8620,-80.4450,1.0,8.4,356.0,99.0,'11111222,11111222,11144222' 
FIT,ioos:station:wmo:SIPF1:1,2014-11-02T21:15:00Z,27.8620,-80.4450,1.0,8.6,3.0,99.0,'11111222,11111222,11144222' 
FIT,ioos:station:wmo:SIPF1:1,2014-11-02T21:30:00Z,27.8620,-80.4450,1.0,8.9,5.0,99.0,'11111222,11111222,11144222' 
FIT,ioos:station:wmo:SIPF1:1,2014-11-02T21:45:00Z,27.8620,-80.4450,1.0,8.7,3.0,99.0,'11111222,11111222,11144222' 
FIT,ioos:station:wmo:SIPF1:1,2014-11-02T22:00:00Z,27.8620,-80.4450,1.0,8.7,358.0,99.0,'11111222,11111222,11144222' 
FIT,ioos:station:wmo:SIPF1:1,2014-11-02T22:15:00Z,27.8620,-80.4450,1.0,9.0,356.0,99.0,'11111222,11111222,11144222' 
FIT,ioos:station:wmo:SIPF1:1,2014-11-02T22:30:00Z,27.8620,-80.4450,1.0,8.5,356.0,99.0,'11111222,11111222,11144222' 
FIT,ioos:station:wmo:SIPF1:1,2014-11-02T22:45:00Z,27.8620,-80.4450,1.0,8.6,351.0,99.0,'11111222,11111222,11144222' 
FIT,ioos:station:wmo:SIPF1:1,2014-11-02T23:00:00Z,27.8620,-80.4450,1.0,8.7,357.0,99.0,'11111222,11111222,11144222' 
FIT,ioos:station:wmo:SIPF1:1,2014-11-02T23:15:00Z,27.8620,-80.4450,1.0,8.5,358.0,99.0,'11111222,11111222,11144222' 
FIT,ioos:station:wmo:SIPF1:1,2014-11-02T23:30:00Z,27.8620,-80.4450,1.0,9.0,360.0,99.0,'11111222,11144222,11144222' 
FIT,ioos:station:wmo:SIPF1:1,2014-11-02T23:45:00Z,27.8620,-80.4450,1.0,8.6,1.0,99.0,'11111222,11111222,11144222' 
FIT,ioos:station:wmo:SIPF1:1,2014-11-03T00:00:00Z,27.8620,-80.4450,1.0,8.7,360.0,99.0,'11111222,11144222,11144222' 
FIT,ioos:station:wmo:SIPF1:1,2014-11-03T00:15:00Z,27.8620,-80.4450,1.0,8.6,352.0,99.0,'11111222,11111222,11144222' 
FIT,ioos:station:wmo:SIPF1:1,2014-11-03T00:30:00Z,27.8620,-80.4450,1.0,8.9,357.0,99.0,'11111222,11111222,11144222' 
FIT,ioos:station:wmo:SIPF1:1,2014-11-03T00:45:00Z,27.8620,-80.4450,1.0,9.0,357.0,99.0,'11111222,11111222,11144222' 
FIT,ioos:station:wmo:SIPF1:1,2014-11-03T01:00:00Z,27.8620,-80.4450,1.0,9.0,355.0,99.0,'11111222,11111222,11144222' 
FIT,ioos:station:wmo:SIPF1:1,2014-11-03T01:15:00Z,27.8620,-80.4450,1.0,8.7,1.0,99.0,'11111222,11111222,11144222' 
FIT,ioos:station:wmo:SIPF1:1,2014-11-03T01:30:00Z,27.8620,-80.4450,1.0,8.9,2.0,99.0,'11111222,11111222,11144222' 
FIT,ioos:station:wmo:SIPF1:1,2014-11-03T01:45:00Z,27.8620,-80.4450,1.0,8.8,3.0,99.0,'11111222,11111222,11144222' 
FIT,ioos:station:wmo:SIPF1:1,2014-11-03T02:00:00Z,27.8620,-80.4450,1.0,8.5,4.0,99.0,'11111222,11111222,11144222' 
FIT,ioos:station:wmo:SIPF1:1,2014-11-03T02:15:00Z,27.8620,-80.4450,1.0,9.0,4.0,99.0,'11111222,11111222,11144222' 
FIT,ioos:station:wmo:SIPF1:1,2014-11-03T02:30:00Z,27.8620,-80.4450,1.0,8.7,0.0,99.0,'11111222,11111222,11144222' 
FIT,ioos:station:wmo:SIPF1:1,2014-11-03T02:45:00Z,27.8620,-80.4450,1.0,8.2,1.0,99.0,'11111222,11111222,11144222' 
FIT,ioos:station:wmo:SIPF1:1,2014-11-03T03:00:00Z,27.8620,-80.4450,1.0,7.9,349.0,99.0,'11111222,11111222,11144222' 
FIT,ioos:station:wmo:SIPF1:1,2014-11-03T03:15:00Z,27.8620,-80.4450,1.0,6.7,354.0,99.0,'11111222,11111222,11144222' 